This is the latest recevied weather packets stored in our database for station/object KF0PEC-15. If no packets are shown the sender has not sent any weather packets the latest 10 day(s).
| Time | Temp. | Humidity | Pressure | Rain* | Wind** | Luminosity | Snow |
|---|---|---|---|---|---|---|---|
| 1777833705 | 21.67° C | 19% | 1008.2 hPa | 0 mm | - | 616 W/m² | - |
| 1777833175 | 21.67° C | 20% | 1008.4 hPa | 0 mm | - | 612 W/m² | - |
| 1777832635 | 21.67° C | 20% | 1008.5 hPa | 0 mm | - | 689 W/m² | - |
| 1777832040 | 21.11° C | 19% | 1009 hPa | 0 mm | - | 624 W/m² | - |
| 1777831510 | 20.56° C | 20% | 1009.4 hPa | 0 mm | - | 648 W/m² | - |
| 1777831025 | 20.56° C | 20% | 1009.4 hPa | 0 mm | - | 650 W/m² | - |
| 1777830465 | 20.56° C | 20% | 1009.9 hPa | 0 mm | - | 501 W/m² | - |
| 1777829875 | 20° C | 21% | 1010.4 hPa | 0 mm | - | 584 W/m² | - |
| 1777829340 | 20° C | 21% | 1010.7 hPa | 0 mm | - | 458 W/m² | - |
| 1777828805 | 20° C | 21% | 1010.6 hPa | 0 mm | - | 435 W/m² | - |
| 1777828215 | 20° C | 23% | 1011 hPa | 0 mm | - | 425 W/m² | - |
| 1777827635 | 20° C | 22% | 1010.8 hPa | 0 mm | - | 469 W/m² | - |
| 1777827115 | 19.44° C | 24% | 1011.7 hPa | 0 mm | - | 603 W/m² | - |
| 1777826535 | 18.89° C | 25% | 1012 hPa | 0 mm | - | 441 W/m² | - |
| 1777826015 | 18.33° C | 25% | 1012.4 hPa | 0 mm | - | 346 W/m² | - |
| 1777825517 | 18.33° C | 25% | 1012.4 hPa | 0 mm | - | 305 W/m² | - |
| 1777825000 | 17.78° C | 26% | 1012.8 hPa | 0 mm | - | 318 W/m² | - |
| 1777824485 | 17.78° C | 26% | 1012.9 hPa | 0 mm | - | 281 W/m² | - |
| 1777823950 | 17.22° C | 29% | 1013.5 hPa | 0 mm | - | 240 W/m² | - |
| 1777823350 | 17.22° C | 27% | 1013.7 hPa | 0 mm | - | 228 W/m² | - |
| 1777822820 | 17.22° C | 27% | 1013.8 hPa | 0 mm | - | 224 W/m² | - |
| 1777822240 | 17.22° C | 27% | 1013.7 hPa | 0 mm | - | 222 W/m² | - |
| 1777821755 | 17.22° C | 27% | 1013.8 hPa | 0 mm | - | 250 W/m² | - |
| 1777821235 | 17.22° C | 27% | 1013.7 hPa | 0 mm | - | 335 W/m² | - |
| 1777820735 | 17.22° C | 28% | 1014.2 hPa | 0 mm | - | 377 W/m² | - |
* Rain latest hour (hover to see other rain measurements)
** Current wind speed in m/s (hover to see current wind gust speed)